Regional Weather Roundup
Issued by NWS Grand Forks, ND

Home | Current Version | Previous Version | Graphics & Text | Print | Product List | Glossary On
Versions: 1 2 3 4 5 6 7 8 9 10 11 12 13 14 15 16 17 18 19 20 21 22 23 24 25 26 27 28 29 30 31 32 33 34 35 36 37 38 39 40 41 42 43 44 45 46 47 48 49 50
000
ASUS43 KFGF 292010
RWRFGF
PRAIRIE TO PINES  WEATHER ROUNDUP
NATIONAL WEATHER SERVICE EASTERN NORTH DAKOTA/GRAND FORKS ND
300 PM CDT MON SEP 29 2014

 **SATELLITE DATA USED TO AUGMENT SKY COVER AT AUTOMATED STATIONS**
 *****  WEATHER ACROSS EASTERN NORTH DAKOTA  *****

CITY           SKY/WX    TMP DP  RH WIND       PRES   REMARKS
GRAND FORKS    PTSUNNY   55  46  71 E9        30.17F
GRAND FRKS AFB CLOUDY    55  49  81 SE8       30.18F
GRAND FRKS NWS   N/A     59 N/A N/A NE5         N/A
DEVILS LAKE    CLOUDY    50  39  66 E8        30.15F
FARGO          MOSUNNY   62  48  60 E7        30.14F
WAHPETON ARPT  CLEAR     61  45  55 NE6       30.13F
$$

 ***** WEATHER ACROSS CENTRAL AND WESTERN NORTH DAKOTA  *****

CITY           SKY/WX    TMP DP  RH WIND       PRES   REMARKS
BISMARCK       CLOUDY    57  47  69 E14       30.09F
MINOT          CLOUDY    49  41  74 E13       30.13F
JAMESTOWN      CLOUDY    53  47  79 E9        30.13F
MINOT AFB      CLOUDY    48  43  81 SE12      30.12F
GARRISON         N/A     51  45  79 SE14      30.10F
WILLISTON      CLOUDY    50  42  74 E13       30.07F
DICKINSON      CLOUDY    48  44  86 E16       30.02F
HETTINGER      CLOUDY    48  47  96 E15       30.03F
$$

 *****  OTHER AIRPORT OBSERVATIONS IN OUR AREA  *****

CITY           SKY/WX    TMP DP  RH WIND       PRES   REMARKS
WALHALLA       CLOUDY    50  46  87 E6        30.20F
GRAFTON AIRPOR CLOUDY    54  46  76 E6        30.19F
VALLEY CITY AR CLOUDY    54  52  94 E13       30.14F
CANDO          CLOUDY    50  41  71 E7        30.17F
CAVALIER APRT  CLOUDY    52  45  76 CALM      30.20F
GWINNER        MOCLDY    59  48  67 E8        30.13F
ROLLA          CLOUDY    46  39  76 SE12      30.18F
 ***** THE ABOVE OBSERVATIONS ARE NON NWS ARE NOT QUALITY
       CONTROLLED AND MAY MIS-REPORT RAIN FOR SNOW...
$$

  *****  WEATHER ACROSS NORTHERN MINNESOTA  *****

CITY           SKY/WX    TMP DP  RH WIND       PRES   REMARKS
FLAG ISLAND    MOSUNNY   50  43  76 S9        30.21F
WARROAD        CLOUDY    52  45  76 NE8       30.22F
ROSEAU         PTSUNNY   52  45  76 NE7       30.21F
HALLOCK        CLOUDY    54  46  76 SE6       30.20F
THF RVR FALLS  MOSUNNY   55  46  71 E6        30.18F
BAUDETTE       PTSUNNY   53  43  68 E5        30.21F
WASKISH        MOSUNNY   54  46  76 CALM      30.20F
CROOKSTON      MOSUNNY   57  46  67 E8        30.18F
STEPHEN NDAWN    N/A     54  46  76 E5          N/A
GREENBUSH NDAW   N/A     54  46  76 NE7         N/A
$$
  *****  WEATHER ACROSS CENTRAL AND WEST MINNESOTA  *****

CITY           SKY/WX    TMP DP  RH WIND       PRES   REMARKS
FOSSTON        SUNNY     61  55  82 NE8       30.17F
BEMIDJI        MOSUNNY   54  44  67 E6        30.18F
PARK RAPIDS    MOSUNNY   55  44  66 E9        30.16F
ELBOW LAKE     MOCLDY    57  49  74 E7        30.13F
WADENA         MOSUNNY   52  45  76 E10       30.16S
DETROIT LAKES  SUNNY     59  46  63 SE10      30.15F
MOORHEAD       NOT AVBL
FERGUS FALLS   SUNNY     61  45  55 SE9       30.13F
MORRIS MN      MOSUNNY   57  50  77 E13       30.12F
STAPLES        CLOUDY    54  45  71 NE7       30.16F
$$
  *****  WEATHER ELSEWHERE ACROSS MINNESOTA  *****

CITY           SKY/WX    TMP DP  RH WIND       PRES   REMARKS
DULUTH         CLOUDY    45  40  82 E10       30.21S
INTRNTL FALLS  CLOUDY    46  40  79 NE7       30.23F
ELY            CLOUDY    45  37  76 NE6       30.22F
CLOQUET        CLOUDY    46  39  76 E9        30.21R
WHEATON        MOSUNNY   61  48  63 E9        30.13F
BRAINERD       CLOUDY    51  43  74 NE14      30.19S
HIBBING        CLOUDY    51  40  65 VRB6      30.21F
ALEXANDRIA     CLOUDY    53  47  79 NE12      30.16F
SAINT CLOUD    CLOUDY    57  46  66 NE7       30.15F
MINNEAPOLIS    CLOUDY    57  46  66 N13       30.12S
$$

  *****  WEATHER ACROSS SOUTH DAKOTA  *****

CITY           SKY/WX    TMP DP  RH WIND       PRES   REMARKS
SIOUX FALLS    PTSUNNY   68  59  73 E10       30.05F
BROOKINGS      NOT AVBL
WATERTOWN      CLOUDY    63  52  67 E12       30.08F
HURON          CLOUDY    67  55  65 SE10      30.03F
SISSETON         N/A     59  50  72 SE8       30.10F
ABERDEEN       CLOUDY    63  50  62 E15       30.08F
MITCHELL       MOSUNNY   72  59  63 E10       30.02F
PIERRE         CLOUDY    60  54  80 SE9       30.01F
MOBRIDGE       CLOUDY    60  49  66 E12       30.03F
RAPID CITY     CLOUDY    51  49  92 SE7       30.00F
$$

  *****  SOME WEATHER IN NEARBY STATES *****

CITY           SKY/WX    TMP DP  RH WIND       PRES   REMARKS
GLASGOW MT     CLOUDY    47  44  90 SE20G28   29.95F
GREAT FALLS MT MOSUNNY   64  43  45 SW13G18   29.79F
CHEYENNE WY    MOSUNNY   62  43  49 E9        29.98F
SCOTTSBLUFF NE CLOUDY    63  55  75 VRB3      29.95F
OMAHA NE       MOSUNNY   83  56  39 S6        30.00F
DES MOINES IA  CLOUDY    80  60  50 SW7       30.00F
DAVENPORT IA   NOT AVBL
CHICAGO IL     MOSUNNY   82  55  39 NW13      29.95F
EAU CLAIRE WI  MOSUNNY   60  45  57 N10       30.09S
LA CROSSE WI   LGT RAIN  57  52  83 N12       30.06S
$$

  *****  SOME NATIONAL WEATHER *****

CITY           SKY/WX    TMP DP  RH WIND       PRES   REMARKS
LA GUARDIA NY  CLOUDY    77  58  51 NW5       29.91F
RALEIGH NC     LGT RAIN  68  64  87 CALM      29.99S
ATLANTA GA     CLOUDY    70  65  84 NE10      29.97F
NEW ORLEANS LA MOSUNNY   83  70  64 NE9       29.88F
OKLAHOMA CITY  MOSUNNY   87  57  35 E8        29.98F
ALBUQUERQUE NM LGT RAIN  74  46  36 S22G28    29.98F
SALT LAKE CITY PTSUNNY   62  45  53 VRB3      29.97S
LOS ANGELES CA MOSUNNY   71  58  63 W12       29.93F
BOISE ID       CLOUDY    62  47  57 NW7       29.95R
SEATTLE WA     CLOUDY    60  55  83 S10       29.92F
$$

*** WEATHER ACROSS MANITOBA...SASKATCHEWAN AND ONTARIO ***
                ***ONTARIO***

CITY           SKY/WX    TMP DP  RH WIND       PRES   REMARKS
GERALDTON      MOSUNNY   43  32  65 E12       30.24F
THUNDER BAY    PTSUNNY   45  36  70 N6        30.25S
SIOUX LOOKOUT  CLOUDY    39  36  87 E6        30.27F
TORONTO        MOSUNNY   73  59  60 SE7       29.90F
BIG TROUT LK   SUNNY     48  27  43 SW12      30.23F
PICKLE LAKE    CLOUDY    39  32  75 S6        30.28F
DRYDEN         CLOUDY    41  37  87 E7        30.26F
KENORA         NOT AVBL
$$
                *** MANITOBA***

CITY           SKY/WX    TMP DP  RH WIND       PRES   REMARKS
BRANDON        CLOUDY    46  41  81 S9        30.18F
DAUPHIN        CLOUDY    50  41  71 SE10      30.16F
ISLAND LAKE    MOSUNNY   45  37  76 S9        30.21F
PILOT MOUND    NOT AVBL
THE PAS        MOSUNNY   54  37  54 S13G20    30.07F
THOMPSON       PTSUNNY   54  37  54 S16G22    30.06F
WINNIPEG       CLOUDY    50  41  71 SE5       30.22F
LYNN LAKE      MOSUNNY   52  39  62 S15G21    29.95F
GILLAM         MOSUNNY   54  36  50 SW16      30.04F
$$
                ***SASKATCHEWAN***

CITY           SKY/WX    TMP DP  RH WIND       PRES   REMARKS
ESTEVAN        CLOUDY    50  43  76 SE12      30.10F
KINDERSLEY     NOT AVBL
LLOYDMINSTER   MOSUNNY   61  45  55 S21G26    29.77F
PRINCE ALBERT  MOSUNNY   55  39  54 S14G22    29.97F
REGINA         PTSUNNY   50  41  71 SE18G26   30.05F
YORKTON        CLOUDY    48  37  66 SE14      30.12F
N. BATTLEFORD  SUNNY     59  45  58 SE20G25   29.88F
LA RONGE       PTSUNNY   57  39  51 S16G22    29.93F
SASKATOON      MOSUNNY   57  45  62 S17G26    29.96F
SWIFT CURRENT  CLOUDY    54  45  71 SE22G31   29.90F
$$
NOTE: THESE ARE AUTOMATED STATIONS WITH LIMITED QUALITY CONTROL
      "FAIR" INDICATES FEW OR NO CLOUDS BELOW 12,000 FEET WITH NO
      SIGNIFICANT WEATHER AND/OR OBSTRUCTIONS TO VISIBILITY.
      SKY/WX - SKY CONDITION AND SIGNIFICANT WEATHER.
      TMP - AIR TEMPERATURE.    DP   - DEWPOINT TEMPERATURE.
      RH  - RELATIVE HUMIDITY.  PRES - PRESSURE.
      HX  - HEAT INDEX.         WCI  - WIND CHILL INDEX.
$



USA.gov is the U.S. government's official web portal to all federal, state and local government web resources and services.